When you browse on this site, cookies collect data to enhance your experience and personalize the content and advertising you see.
Visit our Privacy Policy to learn more. By continuing to use the site, you agree to this use of cookies and data.
  • In Schweiz
  • Länderverzeichnis
  • Für 7 Tage
  • Wassertemperatur
  • Wetterkarte
  • Widgets
  • user-avatar
    Anmelden

    Stündliche Wetter Bordeaux

    Heute, 20 November, Mittwoch

    Zeit Temperatur Niederschläge Wind Luftdruck Luftfeuchtigkeit
    00:00 +4°C° 0 mm 2 m/S 758 mmHg 86%
    01:00 +4°C° 0 mm 2 m/S 758 mmHg 87%
    02:00 +4°C° 0 mm 2 m/S 757 mmHg 88%
    03:00 +4°C° 0 mm 2 m/S 757 mmHg 88%
    04:00 +4°C° 0 mm 2 m/S 756 mmHg 89%
    05:00 +4°C° 0 mm 2 m/S 756 mmHg 89%
    06:00 +2°C° 0 mm 3 m/S 756 mmHg 88%
    07:00 +3°C° 0 mm 3 m/S 756 mmHg 85%
    08:00 +4°C° 0 mm 3 m/S 755 mmHg 83%
    09:00 +4°C° 0 mm 3 m/S 755 mmHg 80%
    10:00 +5°C° 0 mm 3 m/S 755 mmHg 75%
    11:00 +8°C° 0 mm 3 m/S 754 mmHg 70%
    12:00 +9°C° 0 mm 3 m/S 754 mmHg 65%
    13:00 +9°C° 0 mm 3 m/S 754 mmHg 65%
    14:00 +10°C° 0 mm 3 m/S 753 mmHg 65%
    15:00 +10°C° 0 mm 2 m/S 753 mmHg 65%
    16:00 +9°C° 0 mm 2 m/S 753 mmHg 69%
    17:00 +8°C° 0 mm 2 m/S 753 mmHg 73%
    18:00 +7°C° 0 mm 2 m/S 752 mmHg 77%
    19:00 +7°C° 0 mm 2 m/S 753 mmHg 74%
    20:00 +8°C° 0 mm 2 m/S 753 mmHg 71%
    21:00 +8°C° 0 mm 2 m/S 753 mmHg 69%
    22:00 +8°C° 0 mm 2 m/S 753 mmHg 70%
    23:00 +8°C° 0 mm 3 m/S 752 mmHg 70%

    Morgen, 21 November, Donnerstag

    Zeit Temperatur Niederschläge Wind Luftdruck Luftfeuchtigkeit
    00:00 +8°C° 0 mm 3 m/S 752 mmHg 71%
    01:00 +8°C° 0 mm 3 m/S 752 mmHg 73%
    02:00 +8°C° 0 mm 3 m/S 752 mmHg 74%
    03:00 +7°C° 0 mm 3 m/S 751 mmHg 76%
    04:00 +8°C° 0 mm 3 m/S 751 mmHg 76%
    05:00 +8°C° 0 mm 3 m/S 751 mmHg 76%
    06:00 +8°C° 0 mm 3 m/S 751 mmHg 76%
    07:00 +8°C° 0.5 mm 3 m/S 751 mmHg 78%
    08:00 +8°C° 0.5 mm 3 m/S 752 mmHg 79%
    09:00 +8°C° 0.5 mm 3 m/S 752 mmHg 81%
    10:00 +9°C° 0.5 mm 3 m/S 752 mmHg 80%
    11:00 +10°C° 0.5 mm 4 m/S 752 mmHg 78%
    12:00 +11°C° 0.5 mm 4 m/S 752 mmHg 77%
    13:00 +11°C° 0.4 mm 3 m/S 752 mmHg 78%
    14:00 +11°C° 0.4 mm 3 m/S 752 mmHg 78%
    15:00 +11°C° 0.4 mm 3 m/S 752 mmHg 78%
    16:00 +10°C° 0.2 mm 3 m/S 752 mmHg 82%
    17:00 +9°C° 0.2 mm 2 m/S 752 mmHg 85%
    18:00 +8°C° 0.2 mm 2 m/S 752 mmHg 89%
    19:00 +8°C° 0.1 mm 2 m/S 752 mmHg 89%
    20:00 +8°C° 0.1 mm 2 m/S 752 mmHg 89%
    21:00 +8°C° 0.1 mm 2 m/S 752 mmHg 89%
    22:00 +7°C° 0 mm 2 m/S 752 mmHg 88%
    23:00 +7°C° 0 mm 3 m/S 752 mmHg 87%

    übermorgen, 22 November, Freitag

    Zeit Temperatur Niederschläge Wind Luftdruck Luftfeuchtigkeit
    00:00 +7°C° 0 mm 3 m/S 751 mmHg 86%
    01:00 +7°C° 0 mm 3 m/S 751 mmHg 84%
    02:00 +7°C° 0 mm 3 m/S 750 mmHg 82%
    03:00 +7°C° 0 mm 3 m/S 750 mmHg 79%
    04:00 +6°C° 0 mm 4 m/S 749 mmHg 76%
    05:00 +6°C° 0 mm 5 m/S 749 mmHg 73%
    06:00 +7°C° 0 mm 5 m/S 748 mmHg 69%
    07:00 +7°C° 0 mm 5 m/S 747 mmHg 67%
    08:00 +8°C° 0 mm 6 m/S 747 mmHg 65%
    09:00 +8°C° 0 mm 6 m/S 746 mmHg 63%
    10:00 +8°C° 0 mm 6 m/S 745 mmHg 63%
    11:00 +9°C° 0 mm 7 m/S 743 mmHg 63%
    12:00 +9°C° 0 mm 7 m/S 742 mmHg 63%
    13:00 +10°C° 0.1 mm 7 m/S 741 mmHg 64%
    14:00 +10°C° 0.1 mm 6 m/S 740 mmHg 66%
    15:00 +10°C° 0.1 mm 6 m/S 739 mmHg 67%
    16:00 +10°C° 0.8 mm 6 m/S 738 mmHg 71%
    17:00 +10°C° 0.8 mm 7 m/S 738 mmHg 75%
    18:00 +10°C° 0.8 mm 7 m/S 737 mmHg 79%
    19:00 +10°C° 0.3 mm 6 m/S 737 mmHg 80%
    20:00 +10°C° 0.3 mm 6 m/S 737 mmHg 82%
    21:00 +10°C° 0.3 mm 5 m/S 737 mmHg 84%
    22:00 +9°C° 0 mm 5 m/S 737 mmHg 84%
    23:00 +10°C° 0 mm 4 m/S 737 mmHg 84%

    23 November, Samstag

    Zeit Temperatur Niederschläge Wind Luftdruck Luftfeuchtigkeit
    00:00 +8°C° 0 mm 4 m/S 737 mmHg 84%
    01:00 +10°C° 0.2 mm 4 m/S 737 mmHg 85%
    02:00 +9°C° 0.2 mm 5 m/S 737 mmHg 86%
    03:00 +9°C° 0.2 mm 5 m/S 736 mmHg 86%
    04:00 +9°C° 0.2 mm 6 m/S 737 mmHg 87%
    05:00 +10°C° 0.2 mm 6 m/S 737 mmHg 87%
    06:00 +10°C° 0.2 mm 6 m/S 738 mmHg 87%
    07:00 +12°C° 0.1 mm 5 m/S 738 mmHg 87%
    08:00 +12°C° 0.1 mm 5 m/S 739 mmHg 87%
    09:00 +12°C° 0.1 mm 4 m/S 739 mmHg 87%
    10:00 +13°C° 0.3 mm 4 m/S 740 mmHg 83%
    11:00 +14°C° 0.3 mm 4 m/S 741 mmHg 80%
    12:00 +14°C° 0.3 mm 4 m/S 741 mmHg 77%
    13:00 +14°C° 0.4 mm 4 m/S 742 mmHg 77%
    14:00 +14°C° 0.4 mm 4 m/S 743 mmHg 78%
    15:00 +14°C° 0.4 mm 3 m/S 743 mmHg 79%
    16:00 +13°C° 0.6 mm 3 m/S 744 mmHg 82%
    17:00 +12°C° 0.6 mm 4 m/S 745 mmHg 84%
    18:00 +12°C° 0.6 mm 4 m/S 746 mmHg 86%
    19:00 +12°C° 0.3 mm 4 m/S 747 mmHg 86%
    20:00 +12°C° 0.3 mm 3 m/S 748 mmHg 86%
    21:00 +12°C° 0.3 mm 3 m/S 749 mmHg 86%
    22:00 +11°C° 0.1 mm 3 m/S 750 mmHg 88%
    23:00 +11°C° 0.1 mm 3 m/S 750 mmHg 89%

    24 November, Sonntag

    Zeit Temperatur Niederschläge Wind Luftdruck Luftfeuchtigkeit
    00:00 +11°C° 0.1 mm 3 m/S 751 mmHg 91%
    01:00 +11°C° 0.2 mm 3 m/S 751 mmHg 92%
    02:00 +12°C° 0.2 mm 2 m/S 752 mmHg 93%
    03:00 +10°C° 0.2 mm 2 m/S 752 mmHg 94%
    04:00 +10°C° 0.1 mm 2 m/S 753 mmHg 94%
    05:00 +10°C° 0.1 mm 2 m/S 754 mmHg 94%
    06:00 +10°C° 0.1 mm 2 m/S 754 mmHg 94%
    07:00 +12°C° 0 mm 2 m/S 755 mmHg 92%
    08:00 +12°C° 0 mm 2 m/S 756 mmHg 91%
    09:00 +13°C° 0 mm 2 m/S 757 mmHg 89%
    10:00 +14°C° 0.1 mm 2 m/S 757 mmHg 86%
    11:00 +13°C° 0.1 mm 3 m/S 758 mmHg 82%
    12:00 +14°C° 0.1 mm 3 m/S 758 mmHg 78%
    13:00 +14°C° 0.2 mm 3 m/S 759 mmHg 80%
    14:00 +13°C° 0.2 mm 3 m/S 759 mmHg 82%
    15:00 +13°C° 0.2 mm 3 m/S 759 mmHg 84%
    16:00 +12°C° 0.1 mm 3 m/S 760 mmHg 86%
    17:00 +13°C° 0.1 mm 2 m/S 760 mmHg 88%
    18:00 +12°C° 0.1 mm 2 m/S 761 mmHg 90%
    19:00 +12°C° 0 mm 2 m/S 761 mmHg 91%
    20:00 +11°C° 0 mm 1 m/S 761 mmHg 91%
    21:00 +11°C° 0 mm 1 m/S 762 mmHg 91%
    22:00 +11°C° 0 mm 1 m/S 761 mmHg 90%
    23:00 +10°C° 0 mm 1 m/S 761 mmHg 90%

    25 November, Montag

    Zeit Temperatur Niederschläge Wind Luftdruck Luftfeuchtigkeit
    00:00 +10°C° 0 mm 1 m/S 761 mmHg 90%
    01:00 +9°C° 0 mm 2 m/S 761 mmHg 91%
    02:00 +8°C° 0 mm 2 m/S 761 mmHg 91%
    03:00 +8°C° 0 mm 2 m/S 761 mmHg 92%
    04:00 +8°C° 0 mm 2 m/S 761 mmHg 92%
    05:00 +8°C° 0 mm 2 m/S 761 mmHg 92%
    06:00 +8°C° 0 mm 2 m/S 761 mmHg 92%
    07:00 +8°C° 0 mm 2 m/S 761 mmHg 88%
    08:00 +9°C° 0 mm 3 m/S 761 mmHg 84%
    09:00 +10°C° 0 mm 3 m/S 761 mmHg 80%
    10:00 +11°C° 0 mm 3 m/S 761 mmHg 76%
    11:00 +12°C° 0 mm 2 m/S 761 mmHg 72%
    12:00 +13°C° 0 mm 2 m/S 761 mmHg 68%
    13:00 +14°C° 0 mm 2 m/S 761 mmHg 69%
    14:00 +14°C° 0 mm 2 m/S 761 mmHg 70%
    15:00 +14°C° 0 mm 2 m/S 761 mmHg 71%
    16:00 +14°C° 0 mm 2 m/S 761 mmHg 77%
    17:00 +14°C° 0 mm 2 m/S 761 mmHg 83%
    18:00 +13°C° 0 mm 2 m/S 761 mmHg 88%
    19:00 +13°C° 0.1 mm 2 m/S 761 mmHg 90%
    20:00 +13°C° 0.1 mm 2 m/S 761 mmHg 91%
    21:00 +13°C° 0.1 mm 2 m/S 762 mmHg 93%
    22:00 +13°C° 0 mm 2 m/S 761 mmHg 93%
    23:00 +13°C° 0 mm 2 m/S 761 mmHg 92%
    Mehr zeigen